This is the latest recevied weather packets stored in our database for station/object CE1RLP-31. If no packets are shown the sender has not sent any weather packets the latest 10 day(s).
| Time | Temp. | Humidity | Pressure | Rain* | Wind** | Luminosity | Snow |
|---|---|---|---|---|---|---|---|
| 1777999965 | 20° C | 15% | 1099.6 hPa | - | - | - | - |
| 1777999065 | 20.56° C | 14% | 1099.8 hPa | - | - | - | - |
| 1777998165 | 20.56° C | 11% | 1099.9 hPa | - | - | - | - |
| 1777997265 | 20° C | 11% | 1099.9 hPa | - | - | - | - |
| 1777996366 | 20° C | 11% | 1100.2 hPa | - | - | - | - |
| 1777995466 | 19.44° C | 12% | 1100.1 hPa | - | - | - | - |
| 1777994566 | 18.89° C | 11% | 1100.1 hPa | - | - | - | - |
| 1777993666 | 17.78° C | 12% | 1100.2 hPa | - | - | - | - |
| 1777992766 | 17.22° C | 12% | 1100.2 hPa | - | - | - | - |
| 1777991866 | 16.11° C | 11% | 1100.1 hPa | - | - | - | - |
| 1777990966 | 15.56° C | 12% | 1100.1 hPa | - | - | - | - |
| 1777990065 | 15° C | 12% | 1100 hPa | - | - | - | - |
| 1777989165 | 14.44° C | 12% | 1100 hPa | - | - | - | - |
| 1777988265 | 13.89° C | 12% | 1099.9 hPa | - | - | - | - |
| 1777987365 | 12.78° C | 12% | 1100 hPa | - | - | - | - |
| 1777986465 | 12.22° C | 12% | 1099.7 hPa | - | - | - | - |
| 1777985565 | 11.11° C | 12% | 1099.6 hPa | - | - | - | - |
| 1777984665 | 10.56° C | 13% | 1099.6 hPa | - | - | - | - |
| 1777983765 | 10° C | 13% | 1099.7 hPa | - | - | - | - |
| 1777982865 | 9.44° C | 13% | 1099.6 hPa | - | - | - | - |
| 1777981964 | 8.89° C | 13% | 1099.6 hPa | - | - | - | - |
| 1777981064 | 8.89° C | 13% | 1099.4 hPa | - | - | - | - |
| 1777980164 | 8.89° C | 13% | 1099.4 hPa | - | - | - | - |
| 1777979264 | 8.89° C | 14% | 1099.3 hPa | - | - | - | - |
| 1777978364 | 8.33° C | 14% | 1099.2 hPa | - | - | - | - |
* Rain since midnight (hover to see other rain measurements)
** Current wind speed in m/s (hover to see current wind gust speed)